�������l�o���
Date,Time,MP-1(��Sv/h),MP-2(��Sv/h),MP-3(��Sv/h),MP-4(��Sv/h),MP-5(��Sv/h),MP-6(��Sv/h),MP-7(��Sv/h),����,����(m/s),���J
2018/06/01,00:00,0.304,0.189,0.307,0.295,0.295,0.154,0.095,�k��,5.4,�L
2018/06/01,00:10,0.306,0.190,0.309,0.298,0.293,0.154,0.095,�k��,6.9,�L
2018/06/01,00:20,0.304,0.191,0.307,0.295,0.295,0.154,0.095,�k�k��,6.2,��
2018/06/01,00:30,0.306,0.189,0.310,0.298,0.292,0.155,0.095,�k�k��,4.8,��
2018/06/01,00:40,0.304,0.190,0.309,0.296,0.294,0.153,0.095,�k�k��,7.5,�L
2018/06/01,00:50,0.304,0.190,0.310,0.297,0.293,0.155,0.095,�k,7.8,�L
2018/06/01,01:00,0.305,0.190,0.308,0.297,0.295,0.154,0.095,�k�k��,7.8,�L
2018/06/01,01:10,0.308,0.190,0.309,0.298,0.293,0.156,0.095,�k�k��,7.7,�L
2018/06/01,01:20,0.307,0.191,0.310,0.297,0.297,0.154,0.095,�k�k��,8.1,�L
2018/06/01,01:30,0.307,0.192,0.311,0.300,0.294,0.156,0.097,�k�k��,7.4,�L
2018/06/01,01:40,0.308,0.193,0.311,0.298,0.297,0.155,0.096,�k��,6.3,�L
2018/06/01,01:50,0.309,0.191,0.310,0.299,0.295,0.155,0.096,�k��,5.2,��
2018/06/01,02:00,0.307,0.191,0.312,0.297,0.296,0.155,0.095,�k��,5.3,�L
2018/06/01,02:10,0.308,0.191,0.309,0.299,0.294,0.156,0.096,�k��,4.7,�L
2018/06/01,02:20,0.307,0.191,0.313,0.297,0.296,0.154,0.095,�k�k��,5.8,��
2018/06/01,02:30,0.309,0.192,0.308,0.299,0.295,0.155,0.095,�k�k��,6.3,�L
2018/06/01,02:40,0.307,0.191,0.311,0.296,0.295,0.155,0.094,�k�k��,6.0,�L
2018/06/01,02:50,0.308,0.192,0.308,0.299,0.294,0.156,0.095,�k,6.7,�L
2018/06/01,03:00,0.307,0.190,0.310,0.298,0.296,0.155,0.095,�k,4.7,�L
2018/06/01,03:10,0.308,0.192,0.309,0.299,0.295,0.155,0.096,�k�k��,5.1,��
2018/06/01,03:20,0.307,0.190,0.310,0.296,0.295,0.154,0.095,�k�k��,5.3,��
2018/06/01,03:30,0.308,0.191,0.309,0.298,0.294,0.155,0.094,�k�k��,5.7,��
2018/06/01,03:40,0.305,0.191,0.309,0.297,0.295,0.155,0.095,�k�k��,5.5,��
2018/06/01,03:50,0.308,0.189,0.310,0.296,0.296,0.155,0.094,�k�k��,5.1,��
2018/06/01,04:00,0.306,0.191,0.308,0.297,0.294,0.155,0.095,�k�k��,4.3,��
2018/06/01,04:10,0.308,0.190,0.310,0.298,0.295,0.153,0.096,�k��,4.2,��
2018/06/01,04:20,0.305,0.191,0.308,0.297,0.295,0.154,0.095,�k��,4.8,��
2018/06/01,04:30,0.309,0.191,0.310,0.296,0.296,0.154,0.094,�k��,4.4,��
2018/06/01,04:40,0.306,0.190,0.309,0.297,0.294,0.154,0.094,�k�k��,4.7,��
2018/06/01,04:50,0.307,0.190,0.311,0.297,0.295,0.154,0.095,�k�k��,5.7,��
2018/06/01,05:00,0.306,0.190,0.309,0.298,0.292,0.154,0.095,�k�k��,3.9,��
2018/06/01,05:10,0.306,0.190,0.309,0.296,0.294,0.155,0.095,�k��,2.5,��
2018/06/01,05:20,0.307,0.191,0.310,0.299,0.294,0.154,0.095,�k�k��,2.5,��
2018/06/01,05:30,0.307,0.191,0.309,0.297,0.295,0.153,0.094,�k,2.0,��
2018/06/01,05:40,0.308,0.190,0.309,0.297,0.293,0.153,0.094,�k,3.6,��
2018/06/01,05:50,0.306,0.190,0.308,0.297,0.295,0.154,0.094,�k,4.8,��
2018/06/01,06:00,0.307,0.189,0.310,0.297,0.291,0.153,0.094,�k,4.3,��
2018/06/01,06:10,0.307,0.190,0.308,0.298,0.294,0.154,0.095,�k,4.4,��
2018/06/01,06:20,0.309,0.190,0.310,0.295,0.293,0.154,0.094,�k�k��,5.0,��
2018/06/01,06:30,0.306,0.188,0.308,0.298,0.292,0.154,0.093,�k�k��,5.3,��
2018/06/01,06:40,0.307,0.189,0.309,0.296,0.295,0.153,0.094,�k,5.2,��
2018/06/01,06:50,0.305,0.189,0.309,0.297,0.293,0.154,0.094,�k�k��,5.7,��
2018/06/01,07:00,0.307,0.189,0.310,0.297,0.294,0.153,0.094,�k�k��,3.6,��
2018/06/01,07:10,0.308,0.189,0.306,0.296,0.295,0.154,0.093,�k�k��,3.8,��
2018/06/01,07:20,0.305,0.192,0.307,0.297,0.293,0.153,0.093,�k�k��,4.5,��
2018/06/01,07:30,0.309,0.189,0.306,0.295,0.295,0.154,0.094,�k�k��,4.4,��
2018/06/01,07:40,0.306,0.191,0.308,0.297,0.292,0.153,0.094,�k,4.9,��
2018/06/01,07:50,0.308,0.190,0.309,0.295,0.295,0.154,0.094,�k,5.4,��
2018/06/01,08:00,0.307,0.190,0.308,0.298,0.294,0.154,0.094,�k�k��,5.6,��
2018/06/01,08:10,0.306,0.192,0.312,0.298,0.294,0.153,0.094,�k�k��,7.6,��
2018/06/01,08:20,0.309,0.189,0.309,0.294,0.294,0.154,0.094,�k�k��,8.7,��
2018/06/01,08:30,0.305,0.189,0.306,0.293,0.291,0.152,0.093,�k�k��,10.7,��
2018/06/01,08:40,0.307,0.189,0.309,0.295,0.290,0.153,0.092,�k�k��,9.3,��
2018/06/01,08:50,0.309,0.191,0.309,0.297,0.294,0.154,0.093,�k,7.6,��
2018/06/01,09:00,0.306,0.190,0.307,0.296,0.294,0.154,0.093,�k�k��,6.8,��
2018/06/01,09:10,0.305,0.190,0.311,0.295,0.293,0.153,0.094,�k,8.9,��
2018/06/01,09:20,0.310,0.192,0.310,0.295,0.293,0.153,0.095,�k�k��,6.1,��
2018/06/01,09:30,0.309,0.191,0.310,0.300,0.296,0.154,0.094,�k,7.6,��
2018/06/01,09:40,0.306,0.190,0.311,0.298,0.295,0.154,0.094,�k,8.1,��
2018/06/01,09:50,0.310,0.190,0.308,0.296,0.294,0.153,0.093,�k,5.8,��
2018/06/01,10:00,0.308,0.193,0.312,0.299,0.295,0.155,0.094,�k,7.9,��
2018/06/01,10:10,0.305,0.192,0.313,0.300,0.296,0.154,0.095,�k�k��,4.9,��
2018/06/01,10:20,0.306,0.190,0.310,0.299,0.293,0.155,0.095,�k,7.4,��
2018/06/01,10:30,0.311,0.190,0.307,0.298,0.292,0.154,0.095,�k�k��,6.0,��
2018/06/01,10:40,0.308,0.189,0.307,0.297,0.292,0.155,0.094,�k�k��,5.9,��
2018/06/01,10:50,0.308,0.190,0.306,0.296,0.296,0.154,0.094,�k�k��,6.0,��
2018/06/01,11:00,0.305,0.191,0.308,0.297,0.296,0.154,0.093,�k��,7.9,��
2018/06/01,11:10,0.305,0.190,0.308,0.296,0.295,0.154,0.094,�k��,6.6,��
2018/06/01,11:20,0.310,0.189,0.308,0.296,0.293,0.155,0.095,�k��,7.2,��
2018/06/01,11:30,0.311,0.190,0.306,0.296,0.292,0.156,0.095,�k��,5.8,��
2018/06/01,11:40,0.309,0.188,0.308,0.297,0.297,0.155,0.094,�k��,5.3,��
2018/06/01,11:50,0.306,0.191,0.309,0.296,0.297,0.154,0.094,�k��,5.7,��
2018/06/01,12:00,0.308,0.192,0.313,0.298,0.294,0.155,0.095,�k��,6.9,��
2018/06/01,12:10,0.312,0.192,0.314,0.301,0.294,0.155,0.095,���k��,5.0,��
2018/06/01,12:20,0.310,0.191,0.312,0.301,0.299,0.156,0.094,�k,1.4,��
2018/06/01,12:30,0.307,0.191,0.310,0.299,0.296,0.155,0.094,�k,4.1,��
2018/06/01,12:40,0.311,0.193,0.310,0.297,0.293,0.154,0.096,�k,4.8,��
2018/06/01,12:50,0.310,0.193,0.315,0.302,0.297,0.155,0.095,�k�k��,5.2,��
2018/06/01,13:00,0.308,0.192,0.312,0.300,0.297,0.154,0.093,�k,3.1,��
2018/06/01,13:10,0.313,0.194,0.312,0.298,0.293,0.154,0.095,�k�k��,4.4,��
2018/06/01,13:20,0.310,0.192,0.313,0.299,0.296,0.155,0.096,�k�k��,4.5,��
2018/06/01,13:30,0.309,0.192,0.308,0.302,0.296,0.156,0.093,�k,3.4,��
2018/06/01,13:40,0.312,0.195,0.304,0.298,0.295,0.154,0.094,�k,4.2,��
2018/06/01,13:50,0.309,0.192,0.310,0.297,0.294,0.154,0.095,�k�k��,3.9,��
2018/06/01,14:00,0.307,0.192,0.312,0.299,0.294,0.155,0.095,�k�k��,4.2,��
2018/06/01,14:10,0.309,0.193,0.311,0.301,0.298,0.156,0.094,�k,5.0,��
2018/06/01,14:20,0.312,0.194,0.309,0.300,0.296,0.155,0.095,�k�k��,4.3,��
2018/06/01,14:30,0.309,0.192,0.308,0.298,0.295,0.154,0.095,�k�k��,3.6,��
2018/06/01,14:40,0.308,0.192,0.314,0.297,0.294,0.155,0.094,�k�k��,2.9,��
2018/06/01,14:50,0.311,0.192,0.311,0.300,0.298,0.154,0.095,�k�k��,3.8,��
2018/06/01,15:00,0.310,0.191,0.309,0.299,0.296,0.153,0.095,�k��,3.8,��
2018/06/01,15:10,0.310,0.193,0.313,0.301,0.294,0.153,0.095,�k�k��,4.6,��
2018/06/01,15:20,0.313,0.192,0.313,0.302,0.298,0.155,0.096,�k�k��,4.4,��
2018/06/01,15:30,0.309,0.191,0.310,0.292,0.296,0.155,0.095,�k,3.9,��
2018/06/01,15:40,0.307,0.191,0.310,0.302,0.294,0.154,0.095,�k,5.5,��
2018/06/01,15:50,0.308,0.193,0.314,0.299,0.293,0.154,0.095,�k,5.6,��
2018/06/01,16:00,0.312,0.192,0.312,0.300,0.291,0.155,0.095,�k,4.5,��
2018/06/01,16:10,0.310,0.193,0.310,0.302,0.293,0.155,0.095,�k�k��,3.9,��
2018/06/01,16:20,0.308,0.192,0.315,0.297,0.297,0.154,0.096,�k�k��,3.2,��
2018/06/01,16:30,0.312,0.193,0.312,0.301,0.296,0.154,0.094,�k��,2.5,��
2018/06/01,16:40,0.311,0.193,0.314,0.299,0.298,0.155,0.095,�k�k��,1.9,��
2018/06/01,16:50,0.312,0.192,0.315,0.301,0.299,0.156,0.095,�k�k��,2.9,��
2018/06/01,17:00,0.311,0.194,0.312,0.301,0.296,0.156,0.095,�k�k��,2.5,��
2018/06/01,17:10,0.309,0.192,0.314,0.298,0.297,0.156,0.094,��,1.5,��
2018/06/01,17:20,0.311,0.194,0.312,0.301,0.299,0.155,0.094,���k��,0.9,��
2018/06/01,17:30,0.311,0.193,0.313,0.299,0.294,0.155,0.095,�k��,1.5,��
2018/06/01,17:40,0.308,0.193,0.312,0.302,0.293,0.155,0.095,�k��,0.7,��
2018/06/01,17:50,0.307,0.193,0.313,0.301,0.295,0.155,0.095,�쓌,0.6,��
2018/06/01,18:00,0.312,0.193,0.313,0.300,0.298,0.156,0.095,-,CALM,��
2018/06/01,18:10,0.310,0.193,0.314,0.301,0.294,0.154,0.094,-,CALM,��
2018/06/01,18:20,0.311,0.193,0.313,0.299,0.299,0.156,0.094,��,0.7,��
2018/06/01,18:30,0.311,0.192,0.312,0.302,0.298,0.154,0.095,�k��,0.7,��
2018/06/01,18:40,0.309,0.193,0.313,0.301,0.296,0.155,0.094,�k�k��,1.3,��
2018/06/01,18:50,0.313,0.192,0.312,0.301,0.300,0.155,0.095,-,CALM,��
2018/06/01,19:00,0.310,0.193,0.313,0.299,0.295,0.156,0.095,��,0.7,��
2018/06/01,19:10,0.312,0.192,0.313,0.302,0.298,0.154,0.094,-,CALM,��
2018/06/01,19:20,0.311,0.194,0.315,0.300,0.297,0.156,0.094,-,CALM,��
2018/06/01,19:30,0.311,0.193,0.312,0.302,0.298,0.155,0.095,-,CALM,��
2018/06/01,19:40,0.311,0.193,0.314,0.298,0.295,0.156,0.094,-,CALM,��
2018/06/01,19:50,0.312,0.193,0.314,0.301,0.298,0.156,0.095,-,CALM,��
2018/06/01,20:00,0.310,0.194,0.313,0.301,0.297,0.156,0.094,�쐼,0.7,��
2018/06/01,20:10,0.312,0.193,0.315,0.303,0.298,0.155,0.096,��쐼,0.8,��
2018/06/01,20:20,0.311,0.194,0.313,0.301,0.296,0.155,0.095,-,CALM,��
2018/06/01,20:30,0.312,0.194,0.315,0.302,0.298,0.155,0.095,�쐼,1.1,��
2018/06/01,20:40,0.310,0.192,0.313,0.301,0.295,0.155,0.095,�쐼,1.9,��
2018/06/01,20:50,0.312,0.194,0.315,0.302,0.299,0.154,0.095,��쐼,1.5,��
2018/06/01,21:00,0.311,0.193,0.312,0.300,0.295,0.156,0.095,��쐼,1.3,��
2018/06/01,21:10,0.312,0.194,0.314,0.301,0.299,0.155,0.095,��쐼,1.1,��
2018/06/01,21:20,0.310,0.195,0.313,0.301,0.297,0.156,0.095,-,CALM,��
2018/06/01,21:30,0.313,0.193,0.315,0.300,0.298,0.155,0.095,��,0.6,��
2018/06/01,21:40,0.311,0.194,0.314,0.303,0.295,0.155,0.095,��쐼,0.6,��
2018/06/01,21:50,0.312,0.193,0.314,0.301,0.297,0.156,0.095,��,1.6,��
2018/06/01,22:00,0.310,0.195,0.313,0.302,0.297,0.156,0.096,��쐼,2.0,��
2018/06/01,22:10,0.311,0.193,0.313,0.301,0.297,0.155,0.095,��쐼,2.2,��
2018/06/01,22:20,0.311,0.194,0.314,0.302,0.297,0.156,0.096,��쐼,2.2,��
2018/06/01,22:30,0.310,0.194,0.312,0.301,0.295,0.156,0.095,��쐼,2.0,��
2018/06/01,22:40,0.312,0.193,0.313,0.302,0.298,0.155,0.095,��쐼,2.2,��
2018/06/01,22:50,0.310,0.194,0.313,0.301,0.294,0.156,0.095,��쐼,2.3,��
2018/06/01,23:00,0.313,0.193,0.314,0.302,0.298,0.155,0.095,��쐼,2.1,��
2018/06/01,23:10,0.311,0.194,0.314,0.301,0.296,0.155,0.095,��쐼,2.4,��
2018/06/01,23:20,0.311,0.194,0.314,0.301,0.299,0.156,0.095,��쐼,1.8,��
2018/06/01,23:30,0.310,0.194,0.315,0.302,0.295,0.156,0.095,��쐼,2.1,��
2018/06/01,23:40,0.312,0.193,0.313,0.299,0.298,0.156,0.095,��쐼,1.8,��
2018/06/01,23:50,0.311,0.193,0.314,0.302,0.295,0.155,0.096,��쐼,1.7,��
